Location: City of Moscow
(46.7306°N, 116.9989°W)
Time: 11:26:43
(UTC+00:00)

ACS3 Solar Sail - Visible Passes

Search period start: 17 February 2026 00:00
Search period end: 27 February 2026 00:00
Orbit: 898 x 968 km, 97.2° (Epoch: 16 February)

Date Brightness Start Highest point End Pass type
(mag) Time Alt. Az. Time Alt. Az. Time Alt. Az.
18 Feb 4.3 10:23:25 10° N 10:23:30 10° N 10:23:30 10° N visible
19 Feb 4.2 10:35:51 10° N 10:36:03 11° N 10:36:03 11° N visible
20 Feb 4.2 10:48:16 10° N 10:48:34 11° N 10:48:34 11° N visible
21 Feb 4.1 11:00:42 10° N 11:01:03 12° N 11:01:03 12° N visible
22 Feb 4.0 11:13:09 10° N 11:13:30 11° NNW 11:13:30 11° NNW visible
23 Feb 4.4 09:41:59 10° NNE 09:42:10 11° NNE 09:42:10 11° NNE visible
23 Feb 4.0 11:25:39 10° NNW 11:25:54 11° NNW 11:25:54 11° NNW visible
24 Feb 4.3 09:54:06 10° NNE 09:54:33 12° NNE 09:54:33 12° NNE visible
24 Feb 4.0 11:38:14 10° NNW 11:38:17 10° NNW 11:38:17 10° NNW visible
25 Feb 4.2 10:06:14 10° N 10:06:53 13° N 10:06:53 13° N visible
26 Feb 4.1 10:18:22 10° N 10:19:12 14° N 10:19:12 14° N visible
